Location: Fort Wayne
(41.1310°N, 85.1290°W)
Time: 07:51:20
(UTC-04:00)

BREEZE-M DEB (TANK) - Visible Passes

Search period start: 01 August 2014 00:00
Search period end: 11 August 2014 00:00
Orbit: 271 x 13681 km, 49.6° (Epoch: 31 July)

Date Brightness Start Highest point End Pass type
(mag) Time Alt. Az. Time Alt. Az. Time Alt. Az.
01 Aug 8.8 01:44:47 10° NW 02:49:16 32° W 03:52:06 17° SW visible
01 Aug 8.5 22:43:31 10° WNW 23:57:56 70° WSW 01:11:40 33° S visible
02 Aug 9.2 04:05:26 10° WNW 04:18:46 11° WNW 04:32:53 10° WNW visible
02 Aug 8.7 19:50:10 10° WNW 20:34:24 80° NNE 22:31:18 17° SE visible
03 Aug 8.7 00:30:42 10° NW 01:42:06 44° W 02:47:14 24° SW visible
03 Aug 8.5 21:33:34 10° WNW 22:40:10 82° SW 00:06:56 30° SSE visible
04 Aug 9.0 02:26:20 10° NW 03:15:56 21° W 04:15:22 10° WSW visible
04 Aug 8.6 18:41:45 10° W 19:13:00 75° N 21:22:07 10° ESE visible
04 Aug 8.6 23:18:44 10° NW 00:31:43 57° WSW 01:42:39 29° SSW visible
05 Aug 8.6 20:24:11 10° WNW 21:18:17 87° NE 23:02:29 22° SE visible
06 Aug 8.8 01:08:06 10° NW 02:10:37 33° W 03:18:27 15° SW visible
06 Aug 8.5 22:07:58 10° WNW 23:17:32 71° WSW 00:38:20 29° S visible
07 Aug 9.2 03:23:07 10° WNW 03:41:01 11° WNW 04:00:36 10° W visible
07 Aug 8.7 19:15:13 10° WNW 19:55:14 79° NNE 21:58:19 12° SE visible
07 Aug 8.7 23:54:12 10° NW 01:02:32 45° W 02:14:16 21° SW visible
08 Aug 8.6 20:57:57 10° WNW 21:59:11 83° SW 23:34:17 24° SSE visible
09 Aug 9.0 01:48:15 10° NW 02:37:19 22° W 03:38:57 10° WSW visible
09 Aug 8.6 22:42:17 10° NW 23:51:12 58° WSW 01:10:20 24° SSW visible
10 Aug 8.7 19:48:25 10° WNW 20:37:25 87° NE 22:30:29 16° SE visible
